www.pogodaiklimat.ru
ПОГОДА на Мысе Озерном
Время
(UTC), дата
21 16.10
00 17.10
06 17.10
09 17.10
12 17.10
18 17.10
21 17.10
00 18.10
06 18.10
09 18.10
12 18.10
18 18.10
21 18.10
00 19.10
06 19.10
09 19.10
12 19.10
18 19.10
21 19.10
00 20.10
06 20.10
09 20.10
12 20.10
18 20.10
21 20.10
00 21.10
06 21.10
09 21.10
12 21.10
18 21.10
21 21.10
00 22.10
06 22.10
09 22.10
12 22.10
18 22.10
21 22.10
00 23.10
06 23.10
09 23.10
12 23.10
18 23.10
Ветер
(напр.,м/с)
Видим. Явления Облачность Т
(С)
Тd
(С)
f
(%)
Тe
(С)
Тes
(С)
Комфортность P
(гПа)
Po
(гПа)
Тmin
(С)
Tmax
(С)
R
(мм)
R24
(мм)
S
(см)
З 6-11
{12}
20 км 10/1 600 м
[Sc As op Cs]
+2.4 -5.6 55 -3 -3 прохладно 995.2 994.1 +0.3
З 7-12
{15}
50 км 10/3 600 м
[Sc As op]
+4.0 -5.0 52 -1 -1 по сезону 995.9 994.8
СЗ 2
{12}
20 км 9/3 600 м
[Cb cap Ac cuf Ci ing]
+4.6 -6.5 44 +3 +3 по сезону 997.7 996.6
З 3 20 км 9/4 600 м
[Sc diur, vesp Ci sp]
+2.2 -5.3 58 -1 -1 по сезону 998.5 997.4 +5.8
З 4 20 км 9/1 600 м
[Sc diur, vesp Ci fib]
+0.9 -4.8 66 -4 -4 прохладно 999.3 998.2
З 6
{10}
20 км 10/0
[Cs]
+0.8 -5.5 63 -5 -5 холодно 1000.3 999.2
З 4 20 км 10/3 600 м
[Sc diur, vesp Ac As Cs]
+0.6 -5.0 66 -4 -4 прохладно 1001.1 1000.0 +0.3
З 5 н/о +2.8 -4.2 60 -2 -2 по сезону 1001.3 1000.2
СЗ 4 50 км 9/3 1000 м
[Sc Ac trans Ci sp]
+2.9 -6.6 50 -1 -1 по сезону 1002.6 1001.5
З 3 20 км 9/3 1000 м
[Sc Ac trans Ci sp]
+1.7 -5.8 57 -2 -2 по сезону 1003.8 1002.7 +3.9
З 4 20 км 3/3 1000 м
[Sc]
+0.4 -6.2 61 -4 -4 прохладно 1004.7 1003.6
З 4 20 км 9/9 1000 м
[Sc]
-0.8 -6.2 67 -6 -6 холодно 1006.4 1005.2
З 5 20 км 9/9 600 м
[Cb cap]
-0.5 -6.6 63 -6 -6 холодно 1007.3 1006.1 -1.5
З 4 20 км 9/9 600 м
[Cb cap]
+1.1 -5.1 63 -4 -3 прохладно 1008.1 1006.9
СЗ 3 20 км 9/9 600 м
[Cb cap]
+1.8 -7.8 49 -2 -2 по сезону 1009.5 1008.3
СЗ 3 20 км 3/3 600 м
[Sc diur, vesp]
+0.4 -8.2 52 -4 -4 прохладно 1011.0 1009.8 +2.9
СЗ 2 20 км 3/3 600 м
[Sc diur, vesp]
0.0 -8.3 54 -3 -3 прохладно 1011.7 1010.5
СЗ 3
{10}
20 км 9/9 1000 м
[Sc]
+0.3 -7.5 56 -4 -4 прохладно 1013.1 1011.9
СЗ 3 20 км 8/8 1000 м
[Sc]
0.0 -8.4 53 -4 -4 прохладно 1014.2 1013.0 -1.0
СЗ 3 50 км 9/9 1000 м
[Sc]
+1.9 -8.1 47 -2 -1 по сезону 1014.6 1013.4
СЗ 4
{10}
20 км 9/9 600 м
[Cb cap]
+1.1 -8.6 48 -3 -3 прохладно 1014.6 1013.4
СЗ 3 20 км 9/9 600 м
[Sc diur, vesp]
+1.1 -8.2 50 -3 -3 прохладно 1015.1 1013.9 +1.9
СЗ 2 20 км 6/6 600 м
[Sc diur, vesp]
-0.1 -7.2 59 -3 -3 прохладно 1015.3 1014.1
З 2 20 км 6/1 600 м
[Sc Ci fib]
-2.1 -7.3 68 -6 -6 холодно 1015.5 1014.3
З 3 50 км 4/3 600 м
[Sc diur, vesp Ci fib]
-1.6 -7.6 64 -6 -6 холодно 1016.1 1014.9 -3.0
З 3 50 км 9/9 600 м
[Sc]
+1.2 -6.8 55 -3 -2 прохладно 1015.9 1014.7
штиль 0 20 км 8/1 600 м
[Sc Ac trans Cs]
+1.0 -4.9 65 0 0 по сезону 1015.2 1014.0
СЗ 1 20 км 10/0
[Ac trans Cs]
-0.9 -4.9 74 -3 -3 прохладно 1015.6 1014.4 +2.6
СЗ 2 20 км 8/0
[Ac trans Cs]
-1.1 -4.7 77 -5 -5 холодно 1015.5 1014.3
СЗ 1 20 км 10/8 600 м
[Sc Ac trans]
-0.7 -2.7 86 -3 -3 прохладно 1016.4 1015.2
СЗ 1 20 км 9/8 600 м
[Sc Ac trans]
-0.7 -2.3 89 -3 -3 прохладно 1017.4 1016.2 -1.2
С 3 20 км 10/9 600 м
[Cb cap Ac cuf]
+1.3 -3.0 73 -3 -3 прохладно 1018.2 1017.0
СЗ 1 20 км {ливн. осадки} 9/8 600 м
[Sc diur, vesp Ac As]
0.0 -4.3 73 -2 -2 по сезону 1019.0 1017.8
СЗ 1 20 км 6/3 600 м
[Sc diur, vesp Ac trans Ci fib]
-0.0 -4.0 74 -2 -2 по сезону 1019.7 1018.5 +1.7 0.4
З 1 20 км 3/3 600 м
[Sc diur, vesp]
-2.5 -4.8 84 -5 -5 холодно 1020.1 1018.9
З 1 10 км слаб. ливневой снег 10/10 300 м
[Cb cap]
-2.7 -4.3 89 -5 -5 холодно 1019.3 1018.1
С 2 20 км {ливн. осадки} 10/10 600 м
[Cb cap]
-1.4 -4.9 77 -5 -5 холодно 1018.9 1017.7 -3.6 0.4 1
С 3 20 км {ливн. осадки} 10/10 600 м
[Sc]
-1.2 -5.5 73 -6 -6 холодно 1018.8 1017.6
СЗ 2 20 км 9/9 600 м
[Cb cap]
-1.0 -6.1 68 -4 -4 прохладно 1018.1 1016.9
З 2 20 км 3/3 600 м
[Sc diur, vesp]
-2.1 -6.3 73 -6 -6 холодно 1018.7 1017.5 -0.8
СЗ 3 20 км 8/8 600 м
[Sc]
-1.6 -5.5 75 -6 -6 холодно 1018.4 1017.2
З 1 4000 м слаб. ливневой снег 10/10 300 м
[Cb cap]
-0.8 -1.5 95 -3 -3 прохладно 1017.1 1015.9
Местоположение метеостанции Мыс Озерной (Камчатский край, Россия): широта 57.65 долгота 163.20 высота над уровнем моря 9 м.
В архиве по умолчанию представлена погода на Мысе Озерном за последнюю неделю. Архивные данные за месяц целиком и за предыдущие месяцы, начиная с января 2011 года, Вы можете получить, выбрав интересующий диапазон дат из раскрывающегося списка и нажав кнопку "Найти!".
*Определитесь, кто Вы:
Внимание! Время в таблицах - всемирное. Для получения местного времени необходимо прибавить поправку, которая равна 12 ч.
Смотрите также архив погоды в соседних городах и на ближайших метеорологических станциях:
Партнеры нашего сайта:      
Пояснения к столбцам:
  • Ветер - указаны скорость ветра в м/с - средняя за 10 мин, порывы в срок и между сроками (в фигурных скобках) и направление, откуда дует ветер: С - северный,
  • СВ - северо-восточный, В - восточный, ЮВ - юго-восточный, Ю - южный, ЮЗ - юго-западный, З - западный, СЗ - северо-западный.
  • Видимость - горизонтальная дальность видимости в метрах или километрах. При видимости от 1 до 10 км при отсутствии осадков обычно наблюдается дымка, при ухудшении видимости до 1 км и менее - туман. В сухую погоду видимость может ухудшаться дымом, пылью или мглою.
  • Явления - указаны атмосферные явления, наблюдавшиеся в срок или в последний час перед сроком; фигурными скобками обозначены явления, наблюдавшиеся между сроками (за 1-3 часа до срока); квадратными скобками обозначены град или гололедные отложения с указанием их диаметра в мм.
  • Облачность - указаны через наклонную черту общая и нижняя облачность в баллах и высота нижней границы облаков в метрах; квадратными скобками обозначены формы облаков: Ci - перистые, Cs - перисто-слоистые, Cc - перисто-кучевые, Ac - высококучевые, As - высокослоистые, Sc - слоисто-кучевые, Ns - слоисто-дождевые, Cu - кучевые, Cb - кучево-дождевые. Подробнее классификацию облаков см. в Атласе облаков (PDF).
  • T - Температура воздуха - температура, измеренная на высоте 2 м над землей.
  • Td - Температура точки росы - температура, при понижении до которой содержащийся в воздухе водяной пар достигнет насыщения.
  • f - Относительная влажность воздуха - влажноcть воздуха, измеренная на высоте 2 м над землей.
  • Te - Эффективная температура - температура, которую ощущает одетый по сезону человек в тени. Характеристика душности погоды. При расчете учитывается влияние влажности воздуха и скорости ветра на теплоощущения человека.
  • Tes - Эффективная температура на солнце - температура, которую ощущает человек, с поправкой на солнечный нагрев. Характеристика знойности погоды. Зависит от высоты солнца над горизонтом, облачности и скорости ветра. Ночью, в пасмурную погоду, а также при ветре 12 м/с и более поправка равна нулю.
  • P - Атмосферное давление - приведенное к уровню моря атмосферное давление.
  • Po - Атмосферное давление - измеренное на уровне метеостанции атмосферное давление.
  • Tmin - Минимальная температура - минимум температуры воздуха на высоте 2 м над землей.
  • Tmax - Максимальная температура - максимум температуры воздуха на высоте 2 м над землей.
  • R - Количество осадков - Количество выпавших осадков за период времени, мм. При наведении курсора мыши на число - период времени, за который выпало указанное количество осадков.
  • R24 - Количество осадков - Количество выпавших осадков за 24 часа, мм.
  • S - Снежный покров - Высота снежного покрова, см. При наведении курсора мыши на число - состояние снежного покрова и степень покрытия местности в баллах.